This is the latest recevied weather packets stored in our database for station/object OE2ATN. If no packets are shown the sender has not sent any weather packets the latest 10 day(s).
| Time | Temp. | Humidity | Pressure | Rain* | Wind** | Luminosity | Snow |
|---|---|---|---|---|---|---|---|
| 1777529614 | 4.44° C | 74% | 1033.4 hPa | 0 mm | - | - | - |
| 1777529315 | 4.44° C | 74% | 1033.4 hPa | 0 mm | - | - | - |
| 1777529015 | 3.89° C | 76% | 1033.4 hPa | 0 mm | - | - | - |
| 1777528715 | 3.33° C | 76% | 1033.4 hPa | 0 mm | - | - | - |
| 1777528415 | 3.33° C | 77% | 1033.5 hPa | 0 mm | - | - | - |
| 1777528114 | 3.33° C | 76% | 1033.5 hPa | 0 mm | - | - | - |
| 1777527815 | 3.33° C | 75% | 1033.5 hPa | 0 mm | - | - | - |
| 1777527515 | 3.89° C | 74% | 1033.4 hPa | 0 mm | - | - | - |
| 1777527215 | 4.44° C | 75% | 1033.4 hPa | 0 mm | - | - | - |
| 1777526915 | 3.89° C | 76% | 1033.4 hPa | 0 mm | - | - | - |
| 1777526615 | 2.78° C | 72% | 1033.3 hPa | 0 mm | - | - | - |
| 1777526314 | 1.67° C | 73% | 1033.4 hPa | 0 mm | - | - | - |
| 1777526014 | 1.67° C | 65% | 1033.4 hPa | 0 mm | - | - | - |
| 1777525714 | 0.56° C | 60% | 1033.3 hPa | 0 mm | - | - | - |
| 1777525416 | 0° C | 65% | 1033.3 hPa | 0 mm | - | - | - |
| 1777525115 | 0° C | 65% | 1033.1 hPa | 0 mm | - | - | - |
| 1777524815 | 0° C | 65% | 1033.1 hPa | 0 mm | - | - | - |
| 1777524515 | 0° C | 65% | 1033.1 hPa | 0 mm | - | - | - |
| 1777524215 | -0.56° C | 69% | 1033 hPa | 0 mm | - | - | - |
| 1777523914 | -0.56° C | 69% | 1033 hPa | 0 mm | - | - | - |
| 1777523615 | 0° C | 71% | 1033 hPa | 0 mm | - | - | - |
| 1777523315 | 0° C | 71% | 1033 hPa | 0 mm | - | - | - |
| 1777523014 | 0° C | 69% | 1032.9 hPa | 0 mm | - | - | - |
| 1777522714 | 0° C | 68% | 1032.7 hPa | 0 mm | - | - | - |
| 1777522415 | 0° C | 68% | 1032.7 hPa | 0 mm | - | - | - |
* Rain latest hour (hover to see other rain measurements)
** Current wind speed in m/s (hover to see current wind gust speed)